Flag for Russia Weather past 2 weeks in Astrakhan, Russia

Now
77 °F

Sunny.


Feels Like: 78 °F
Forecast: 51 / 67 °F
Wind: 1 mph from North

Location: Astrakhan

Current Time: Sep 16, 2014 at 12:15:29 PM

Latest Report: Sep 16, 2014 at 11:30 AM


Visibility: 10 mi

Pressure: 29.83 "Hg

Humidity: 30%

Dew point: 43 °F

Location of AstrakhanLocation

Historic Weather in Astrakhan — Graph

°F

Astrakhan temperature yesterday

Maximum temperature yesterday: 82 °F (at 4:30 PM)
Minimum temperature yesterday: 54 °F (at 7:00 AM)
Average temperature yesterday: 67 °F

Past Weeks' High & Low Weather Summary

 TemperatureHumidityPressure
High90 °F (Sep 3, 2:30 PM)88% (Sep 7, 2:00 AM)30.09 "Hg (Sep 7, 2:00 AM)
Low50 °F (Sep 16, 7:00 AM)14% (Sep 14, 12:30 PM)29.83 "Hg (Sep 9, 9:30 AM)
Average71 °F49%29.97 "Hg
* Reported Sep 1 11:00 AM — Sep 16 11:00 AM, Astrakhan, Weather by CustomWeather, © 2014

Note: Actual official high and low records may vary slightly from our data, if they occured in-between our weather recording intervals... More about our weather records

Advertising

Astrakhan weather history for previous 24 hours

 ConditionsComfort  
Time TempWeatherWind HumidityBarometerVisibility
11:00 AM
Sep 16
75 °FPassing clouds.3 mph31%29.86 "HgN/A
10:30 AM73 °FPassing clouds.3 mph36%29.86 "HgN/A
10:00 AM70 °FPassing clouds.3 mph43%29.86 "HgN/A
9:30 AM66 °FPassing clouds.3 mph52%29.86 "HgN/A
9:00 AM63 °FSunny.6 mph64%29.86 "Hg10 mi
8:30 AM61 °FSunny.6 mph63%29.86 "Hg10 mi
8:00 AM57 °FSunny.3 mph67%29.86 "Hg10 mi
7:30 AM54 °FSunny.1 mph77%29.86 "Hg10 mi
7:00 AM50 °FClear.No wind82%29.86 "Hg10 mi
6:30 AM54 °FClear.1 mph77%29.86 "Hg10 mi
6:00 AM54 °FClear.6 mph72%29.83 "Hg10 mi
5:00 AM54 °FClear.3 mph72%29.83 "Hg10 mi
4:30 AM54 °FClear.3 mph72%29.86 "Hg10 mi
4:00 AM54 °FClear.3 mph72%29.83 "Hg10 mi
3:30 AM54 °FClear.6 mph72%29.86 "Hg10 mi
3:00 AM54 °FClear.6 mph77%29.86 "Hg10 mi
2:30 AM54 °FClear.3 mph72%29.86 "Hg10 mi
2:00 AM55 °FClear.3 mph67%29.86 "Hg10 mi
1:30 AM57 °FClear.3 mph63%29.86 "Hg10 mi
1:00 AM55 °FClear.3 mph72%29.86 "Hg10 mi
12:30 AM57 °FClear.3 mph72%29.89 "Hg10 mi
12:00 AM59 °FClear.3 mph72%29.89 "Hg10 mi
11:30 PM
Sep 15
59 °FClear.3 mph63%29.89 "Hg10 mi
11:00 PM59 °FClear.3 mph68%29.89 "Hg10 mi
10:30 PM59 °FClear.1 mph68%29.89 "Hg10 mi
10:00 PM63 °FClear.1 mph59%29.92 "Hg10 mi
9:30 PM64 °FClear.1 mph52%29.92 "Hg10 mi
9:00 PM66 °FClear.1 mph49%29.92 "Hg10 mi
8:30 PM68 °FClear.1 mph46%29.92 "Hg10 mi
8:00 PM70 °FClear.6 mph40%29.92 "Hg10 mi
7:30 PM70 °FSunny.1 mph35%29.89 "Hg10 mi
7:00 PM75 °FSunny.1 mph25%29.89 "Hg10 mi
6:30 PM79 °FSunny.1 mph20%29.89 "Hg10 mi
6:00 PM81 °FSunny.1 mph16%29.92 "Hg10 mi
5:30 PM81 °FPassing clouds.3 mph15%29.92 "HgN/A
5:00 PM81 °FPassing clouds.3 mph15%29.92 "HgN/A
4:30 PM82 °FPassing clouds.3 mph15%29.92 "HgN/A
4:00 PM81 °FPassing clouds.3 mph16%29.92 "HgN/A
3:30 PM81 °FSunny.6 mph15%29.92 "Hg10 mi
3:00 PM81 °FSunny.6 mph15%29.95 "Hg10 mi
2:30 PM81 °FPassing clouds.8 mph15%29.95 "HgN/A
2:00 PM81 °FPassing clouds.8 mph15%29.95 "HgN/A
1:30 PM81 °FSunny.3 mph16%29.95 "Hg10 mi
1:00 PM79 °FPassing clouds.3 mph17%29.98 "HgN/A
12:30 PM77 °FPassing clouds.6 mph19%29.98 "HgN/A
12:00 PM77 °FPassing clouds.6 mph21%29.98 "HgN/A
Weather by CustomWeather, © 2014

See weather overviewHow to use our weather pages